CZ-4B DEB, 37574

Orbit data source: Space-Track

CZ-4B DEB, 37574 is space debris in SSO originally from a launch on Tue, 27 May 2008 UTC launched from the Taiyaun Space Center, China (TSC). Debris objects in space refer to the collection of defunct objects orbiting the Earth. Examples of debris include non-operational satellites, rocket bodies, and fragments generated from explosions, collisions, or faulty payload assembly.

Loading next visibility...
Identifier
37574, 2008-026F
Orbit
SSO
Country
Flag of CNCN / PRC
Related business
Manufacturer
Unknown
Mission
Spacecraft
Bus & Motor
Unknown
Mass
Unknown
Launch date (UTC)
2008-05-27 (18 years ago)
Launch vehicle
Unknown
Launch site
Taiyaun Space Center, China (TSC)
Object type
Payload
Rocket body
Debris
Shape & HBR
Unknown shape, 0.1 m
Radar Cross Section
Small (<0.1 m²)

Expand to show TLE details & history
Last TLE update: 2 days ago

TLE from 2 days ago
0 CZ-4B DEB
1 37574U 08026F   26171.32143006  .00000219  00000-0  21554-3 0  9990
2 37574  98.7560 186.0187 0247385 295.7826  61.7990 13.75641410690146
Epoch: 2026-06-20T07:42Z
TLE epoch observation values (Epoch: 2026-06-20T07:42:51.557Z)
Latitude
0.00008°
Longitude
161.76614°
Altitude
899.771 km
Speed
7.444 km/s
True Right ascension
12h 24m 04s
True Declination
0° 00' 00"
Sunlit
Object was in daylight at epoch
Visualization orbit readout
Latitude
Unknown
Longitude
Unknown
Altitude
Unknown
Speed
Unknown
Apparent Right ascension
Unknown
Apparent Declination
Unknown
Sunlit
N/A
Visualization observer readout
Local Sidereal Time
23:07:58
Azimuth
Unknown
Elevation
Unknown
Doppler factor
Unknown
Orbital elements
Apogee altitude
1,158.55 km
Perigee altitude
794.659 km
Semi-major axis
7,354.742 km
Eccentricity
0.02474
Inclination
98.756°
RAAN
186.0187°
Arg. of periapsis
295.7826°
True anomaly
64.33352°
Mean anomaly
61.799°
Eccentric anomaly
63.06263°
Mean motion
3.44106 °/min
Orbital period
104.62 mins
BSTAR
0.00021554
Loading maneuver chart data...
Computing Atmospheric mass density...
Loading historical data...
Loading historical data...
Loading historical data...
Loading historical data...
Loading historical data...
Loading historical data...
Loading historical data...

Documentation

Showing up to 5 results
|